Home > Weather > Olsztyn > Past weeks

Flag for Poland Past Weather in Olsztyn, Poland — Yesterday and Last 2 Weeks

Now
57 °F

Cool.


Feels Like: 57 °F
Forecast: 63 / 77 °F
Wind: 1 mph from Northeast

Location: Ketrzyn

Current Time: Aug 28, 2016 at 7:19:07 AM

Latest Report: Aug 28, 2016 at 6:00 AM


Visibility: 9 mi

Pressure: 30.11 "Hg

Humidity: 96%

Dew Point: 56 °F

Location of OlsztynLocation

Past Weather in Olsztyn — Graph

°F

Olsztyn Temperature Yesterday

Maximum temperature yesterday: 84 °F (at 4:00 PM)
Minimum temperature yesterday: 60 °F (at 5:00 AM)
Average temperature yesterday: 71 °F

High & Low Weather Summary for the Past Weeks

 TemperatureHumidityPressure
High84 °F (Aug 27, 4:00 PM)99% (Aug 23, 5:00 AM)30.35 "Hg (Aug 23, 5:00 AM)
Low49 °F (Aug 17, 1:00 AM)39% (Aug 26, 4:00 PM)29.77 "Hg (Aug 18, 5:00 AM)
Average63 °F80%30.07 "Hg
* Reported Aug 13 6:00 AM — Aug 28 6:00 AM, Olsztyn, Weather by CustomWeather, © 2016

Note: Actual official high and low records may vary slightly from our data, if they occured in-between our weather recording intervals... More about our weather records

Advertising

Olsztyn Weather History for the Previous 24 Hours

Scroll right to see more
 ConditionsComfort  
Time TempWeatherWind HumidityBarometerVisibility
6:00 AM
Sun, Aug 28
57 °FCool.1 mph96%30.11 "Hg9 mi
5:00 AM57 °FCool.1 mph96%30.12 "Hg13 mi
4:00 AM57 °FCool.No wind93%30.13 "Hg9 mi
3:00 AM58 °FCool.1 mph92%30.14 "Hg14 mi
2:00 AM60 °FCool.1 mph88%30.14 "Hg22 mi
1:00 AM61 °FCool.5 mph81%30.15 "Hg25 mi
12:00 AM62 °FCool.1 mph86%30.14 "Hg16 mi
11:00 PM
Sat, Aug 27
64 °FMild.1 mph77%30.14 "Hg25 mi
10:00 PM67 °FMild.2 mph74%30.14 "Hg22 mi
9:00 PM69 °FMild.2 mph83%30.13 "Hg16 mi
8:00 PM71 °FMild.2 mph81%30.12 "Hg9 mi
7:00 PM76 °FMild.3 mph70%30.10 "Hg14 mi
6:00 PM80 °FWarm.3 mph60%30.10 "Hg16 mi
5:00 PM83 °FWarm.3 mph46%30.10 "Hg16 mi
4:00 PM84 °FWarm.5 mph44%30.10 "Hg18 mi
3:00 PM83 °FWarm.5 mph45%30.10 "Hg25 mi
2:00 PM83 °FWarm.5 mph46%30.11 "Hg18 mi
1:00 PM81 °FWarm.7 mph51%30.12 "Hg22 mi
12:00 PM81 °FWarm.7 mph51%30.12 "Hg19 mi
11:00 AM79 °FWarm.8 mph50%30.12 "Hg17 mi
10:00 AM76 °FMild.7 mph57%30.13 "Hg22 mi
9:00 AM71 °FMild.5 mph63%30.13 "Hg22 mi
8:00 AM67 °FMild.3 mph70%30.14 "Hg17 mi
7:00 AM63 °FMild.2 mph74%30.14 "Hg19 mi
Weather by CustomWeather, © 2016

See weather overviewHow to use our weather pages